Location: Schommer Observatory
(40.5200°N, 74.4500°W)
Time: 11:46:41
(UTC-05:00)

Tiangong 1 - Pass Details

Date: 12 November 2017
Orbit: 283 x 307 km, 42.8° (Epoch: 24 November)

Event Time Altitude Azimuth Distance (km) Brightness Sun altitude
Exits shadow 04:48:36 24° 123° (ESE) 659 2.9 -21.4°
Drops below altitude 10° 04:49:47 10° 117° (ESE) 1,135 4.4 -21.2°
Sets 04:51:45 0° 114° (ESE) 1,958 6.0 -20.9°
